[TLELIST] Archives

 

[TLELIST] Current TLEs

August 9th 2025 PST

0 HST 1 20580U 90037B 25220.83832794 .00006225 00000-0 22831-3 0 9993 2 20580 28.4688 47.8976 0001812 321.4971 38.5494 15.25825232740732 0 ISS (ZARYA) 1 25544U 98067A 25221.25173611 .00006550 00000-0 12095-3 0 9994 2 25544 51.6366 44.0509 0001805 168.6393 192.8720 15.50401967523390 0 CXO 1 25867U 99040B 25222.32971541 .00000969 00000-0 00000-0 0 9999 2 25867 50.5518 127.4471 8337855 310.0112 0.8647 0.37797802 16147 ...Continue Reading

[TLELIST] Current TLEs

August 8th 2025 PST

0 HST 1 20580U 90037B 25219.79181381 .00005617 00000-0 20530-3 0 9993 2 20580 28.4688 54.9965 0001770 309.2871 50.7567 15.25813245740834 0 ISS (ZARYA) 1 25544U 98067A 25219.96234157 .00005989 00000-0 11133-3 0 9999 2 25544 51.6348 50.4484 0001496 166.7359 193.3669 15.50382932523196 0 CXO 1 25867U 99040B 25222.32971541 .00000969 00000-0 00000-0 0 9999 2 25867 50.5518 127.4471 8337855 310.0112 0.8647 0.37797802 16147 ...Continue Reading

[TLELIST] Current TLEs

August 8th 2025 PST

0 HST 1 20580U 90037B 25219.79181381 .00005617 00000-0 20530-3 0 9993 2 20580 28.4688 54.9965 0001770 309.2871 50.7567 15.25813245740834 0 ISS (ZARYA) 1 25544U 98067A 25219.96234157 .00005989 00000-0 11133-3 0 9999 2 25544 51.6348 50.4484 0001496 166.7359 193.3669 15.50382932523196 0 CXO 1 25867U 99040B 25222.32971541 .00000969 00000-0 00000-0 0 9999 2 25867 50.5518 127.4471 8337855 310.0112 0.8647 0.37797802 16147 ...Continue Reading

[TLELIST] Current TLEs

August 7th 2025 PST

0 HST 1 20580U 90037B 25218.87610842 .00005769 00000-0 21114-3 0 9997 2 20580 28.4690 61.2077 0001737 297.7613 62.2806 15.25803849740439 0 ISS (ZARYA) 1 25544U 98067A 25218.93101683 .00006987 00000-0 12862-3 0 9991 2 25544 51.6349 55.5614 0001472 160.5833 199.5213 15.50370089523037 0 CXO 1 25867U 99040B 25219.68491146 .00000921 00000-0 00000-0 0 9990 2 25867 50.5084 127.5403 8340662 310.0269 0.7400 0.37796433 16138 ...Continue Reading

[TLELIST] Current TLEs

August 6th 2025 PST

0 HST 1 20580U 90037B 25217.69876450 .00005745 00000-0 21032-3 0 9998 2 20580 28.4689 69.1937 0001693 282.6101 77.4304 15.25791255740253 0 ISS (ZARYA) 1 25544U 98067A 25217.57738833 .00008075 00000-0 14750-3 0 9991 2 25544 51.6349 62.2717 0001595 155.7040 204.4024 15.50349286522825 0 CXO 1 25867U 99040B 25219.68491146 .00000921 00000-0 00000-0 0 9990 2 25867 50.5084 127.5403 8340662 310.0269 0.7400 0.37796433 16138 ...Continue Reading

[TLELIST] Current TLEs

August 5th 2025 PST

0 HST 1 20580U 90037B 25216.91386346 .00005889 00000-0 21582-3 0 9991 2 20580 28.4687 74.5178 0001646 272.7159 87.3247 15.25782674740137 0 ISS (ZARYA) 1 25544U 98067A 25216.88307209 .00003454 00000-0 67688-4 0 9998 2 25544 51.6362 65.7123 0001818 143.6625 298.7323 15.50331059522717 0 CXO 1 25867U 99040B 25219.68491146 .00000921 00000-0 00000-0 0 9990 2 25867 50.5084 127.5403 8340662 310.0269 0.7400 0.37796433 16138 ...Continue Reading

[TLELIST] Current TLEs

August 4th 2025 PST

0 HST 1 20580U 90037B 25215.93273082 .00005501 00000-0 20116-3 0 9997 2 20580 28.4688 81.1723 0001692 258.8868 101.1537 15.25770533739980 0 ISS (ZARYA) 1 25544U 98067A 25216.09482028 .00008126 00000-0 14851-3 0 9998 2 25544 51.6350 69.6212 0001682 150.1438 209.9647 15.50325727522594 0 CXO 1 25867U 99040B 25217.04070135 .00000801 00000-0 00000-0 0 9996 2 25867 50.4588 127.6292 8344700 310.0359 0.7049 0.37799666 16129 ...Continue Reading

[TLELIST] Current TLEs

August 4th 2025 PST

0 HST 1 20580U 90037B 25215.93273082 .00005501 00000-0 20116-3 0 9997 2 20580 28.4688 81.1723 0001692 258.8868 101.1537 15.25770533739980 0 ISS (ZARYA) 1 25544U 98067A 25216.09482028 .00008126 00000-0 14851-3 0 9998 2 25544 51.6350 69.6212 0001682 150.1438 209.9647 15.50325727522594 0 CXO 1 25867U 99040B 25217.04070135 .00000801 00000-0 00000-0 0 9996 2 25867 50.4588 127.6292 8344700 310.0359 0.7049 0.37799666 16129 ...Continue Reading

[TLELIST] Current TLEs

August 3rd 2025 PST

0 HST 1 20580U 90037B 25214.03585465 .00006073 00000-0 22305-3 0 9995 2 20580 28.4682 94.0393 0001709 235.5856 124.4577 15.25748314739690 0 ISS (ZARYA) 1 25544U 98067A 25215.46272211 .00014619 00000-0 26065-3 0 9993 2 25544 51.6349 72.7526 0001790 135.4885 294.4671 15.50326680522491 0 CXO 1 25867U 99040B 25217.04070135 .00000801 00000-0 00000-0 0 9996 2 25867 50.4588 127.6292 8344700 310.0359 0.7049 0.37799666 16129 ...Continue Reading

[TLELIST] Current TLEs

August 2nd 2025 PST

0 HST 1 20580U 90037B 25214.03585465 .00006073 00000-0 22305-3 0 9995 2 20580 28.4682 94.0393 0001709 235.5856 124.4577 15.25748314739959 0 ISS (ZARYA) 1 25544U 98067A 25214.49566479 .00011663 00000-0 20985-3 0 9998 2 25544 51.6359 77.5427 0002034 138.8478 290.2759 15.50294044522345 0 CXO 1 25867U 99040B 25217.04052865 .00000801 00000-0 00000+0 0 9995 2 25867 50.4588 127.6292 8344692 310.0360 0.6804 0.37799653 27284 ...Continue Reading
  • This mailing list is a public mailing list - anyone may join or leave, at any time.
  • This mailing list is announce-only.

International Space Station (ISS) / Hubble Space Telescope (HST) / Chandra X-Ray Observatory Orbital Data via EMAIL

Privacy Policy:

Private list